Home > Weather > Strausberg > Past weeks

Flag for Germany Past Weather in Strausberg, Brandenburg, Germany — Yesterday and Last 2 Weeks

Now
64 °F

Clear.


Feels Like: 64 °F
Forecast: 63 / 87 °F
Wind: 5 mph from Southeast

Location: Berlin-Schoenefeld

Current Time: Aug 27, 2016 at 1:33:11 AM

Latest Report: Aug 27, 2016 at 1:20 AM


Visibility: 10 mi

Pressure: 30.04 "Hg

Humidity: 68%

Dew Point: 54 °F

Location of StrausbergLocation

Past Weather in Strausberg — Graph

°F

Strausberg Temperature Yesterday

Maximum temperature yesterday: 91 °F (at 2:50 PM)
Minimum temperature yesterday: 61 °F (at 5:20 AM)
Average temperature yesterday: 76 °F

High & Low Weather Summary for the Past Weeks

 TemperatureHumidityPressure
High91 °F (Aug 26, 2:50 PM)100% (Aug 13, 1:50 AM)30.33 "Hg (Aug 13, 1:50 AM)
Low45 °F (Aug 17, 6:20 AM)17% (Aug 26, 4:50 PM)29.80 "Hg (Aug 18, 4:20 PM)
Average65 °F68%30.09 "Hg
* Reported Aug 12 12:20 AM — Aug 27 12:20 AM, Strausberg, Weather by CustomWeather, © 2016

Note: Actual official high and low records may vary slightly from our data, if they occured in-between our weather recording intervals... More about our weather records

Advertising

Strausberg Weather History for the Previous 24 Hours

Scroll right to see more
 ConditionsComfort  
Time TempWeatherWind HumidityBarometerVisibility
12:20 AM
Sat, Aug 27
68 °FClear.2 mph60%30.04 "Hg10 mi
11:50 PM
Fri, Aug 26
68 °FClear.3 mph60%30.04 "Hg10 mi
11:20 PM70 °FPassing clouds.3 mph53%30.04 "HgN/A
10:50 PM72 °FClear.5 mph50%30.04 "Hg10 mi
10:20 PM73 °FClear.5 mph47%30.04 "Hg10 mi
9:50 PM75 °FClear.5 mph44%30.04 "Hg10 mi
9:20 PM77 °FClear.6 mph39%30.04 "Hg10 mi
8:50 PM79 °FSunny.6 mph37%30.04 "Hg10 mi
8:20 PM81 °FPassing clouds.7 mph32%30.04 "HgN/A
7:50 PM82 °FSunny.8 mph30%30.04 "Hg10 mi
7:20 PM86 °FSunny.8 mph29%30.01 "Hg10 mi
6:50 PM88 °FSunny.8 mph25%30.01 "Hg10 mi
6:20 PM90 °FPassing clouds.7 mph24%30.01 "HgN/A
5:50 PM91 °FPassing clouds.8 mph20%30.01 "HgN/A
5:20 PM91 °FPassing clouds.9 mph18%30.01 "HgN/A
4:50 PM91 °FPassing clouds.9 mph17%30.01 "HgN/A
4:20 PM91 °FPassing clouds.10 mph18%30.01 "HgN/A
3:50 PM91 °FPassing clouds.9 mph18%30.01 "HgN/A
3:20 PM91 °FPassing clouds.12 mph18%30.01 "HgN/A
2:50 PM91 °FPassing clouds.10 mph18%30.04 "HgN/A
2:20 PM90 °FPassing clouds.10 mph20%30.04 "HgN/A
1:50 PM90 °FPassing clouds.9 mph22%30.04 "HgN/A
1:20 PM88 °FPassing clouds.9 mph25%30.04 "HgN/A
12:50 PM86 °FPassing clouds.9 mph29%30.04 "HgN/A
12:20 PM84 °FPassing clouds.8 mph33%30.04 "HgN/A
11:50 AM82 °FPassing clouds.8 mph35%30.04 "HgN/A
11:20 AM81 °FPassing clouds.9 mph39%30.07 "HgN/A
10:50 AM79 °FPassing clouds.10 mph42%30.07 "HgN/A
10:20 AM77 °FPassing clouds.9 mph47%30.07 "HgN/A
9:50 AM73 °FPassing clouds.8 mph53%30.07 "HgN/A
9:20 AM72 °FPassing clouds.8 mph57%30.07 "HgN/A
8:50 AM70 °FPassing clouds.10 mph60%30.07 "HgN/A
8:20 AM68 °FPassing clouds.8 mph64%30.07 "HgN/A
7:50 AM66 °FSunny.10 mph68%30.07 "Hg10 mi
7:20 AM64 °FPassing clouds.8 mph68%30.07 "HgN/A
6:50 AM63 °FClear.9 mph73%30.07 "Hg10 mi
6:20 AM61 °FClear.8 mph77%30.07 "Hg10 mi
5:50 AM63 °FClear.9 mph73%30.07 "Hg10 mi
5:20 AM61 °FClear.8 mph77%30.07 "Hg10 mi
4:50 AM63 °FClear.9 mph73%30.07 "Hg10 mi
4:20 AM63 °FClear.8 mph73%30.07 "Hg10 mi
3:50 AM63 °FClear.8 mph73%30.07 "Hg10 mi
3:20 AM64 °FClear.7 mph68%30.07 "Hg10 mi
2:50 AM64 °FPassing clouds.6 mph68%30.07 "HgN/A
2:20 AM64 °FClear.7 mph68%30.07 "Hg10 mi
1:50 AM64 °FClear.7 mph68%30.09 "Hg10 mi
1:20 AM66 °FPassing clouds.7 mph64%30.09 "HgN/A
Weather by CustomWeather, © 2016

See weather overviewHow to use our weather pages